Wind_Speed
10 11 12 12 12 14 15 15 14 13 14 14 12 12 11 11 11 11 11 12 13 14 13 13 12 11 11 10 9 8 8 8 7 7 7 7 7 7 6 6 7 7 6 6 6 6 7 7 8 7 7 6 5 5 6 5 5 5 5 5 6 4 5 7 7 7 5 3 4 4 3 1 2 4 3 2 2 2 1 1 3 5 3 4 6
10 11 12 13 13 14 15 14 13 13 14 15 13 12 12 12 11 11 11 12 13 13 13 13 12 12 11 10 10 9 8 8 7 7 7 7 6 6 5 5 6 6 5 5 6 5 5 6 6 6 6 5 5 5 5 3 3 5 5 5 6 5 4 5 6 6 5 3 2 3 3 1 0 2 2 2 2 2 1 0 3 2 2 4 5
12 11 11 12 12 13 14 13 13 13 14 15 14 13 12 12 12 11 11 12 13 13 13 13 13 12 12 11 11 10 9 8 7 7 7 7 6 6 5 5 5 5 4 4 5 5 4 4 4 4 4 4 4 5 4 4 4 5 5 5 5 5 5 4 3 4 4 3 1 3 4 2 2 1 2 1 1 3 2 2 3 2 2 4 5
13 11 10 11 11 12 12 12 13 14 13 14 14 14 13 13 13 12 11 12 13 13 13 13 13 13 12 12 12 11 10 9 8 8 7 7 7 7 6 6 5 4 4 4 4 4 4 3 3 3 3 3 2 2 2 2 3 4 3 3 4 5 5 3 2 2 1 1 1 1 2 1 1 1 2 2 1 2 1 2 3 3 3 5 7
12 11 10 10 11 11 12 13 13 13 13 12 13 15 14 13 13 13 12 12 12 12 13 13 13 13 12 12 12 11 11 10 9 9 8 7 7 7 7 6 6 5 5 5 4 4 4 3 4 4 3 2 2 1 2 1 1 2 2 2 3 3 2 3 3 2 1 1 1 1 3 3 2 3 5 5 6 6 4 4 6 6 4 6 8
11 10 9 10 11 11 12 13 13 13 14 12 12 14 15 14 14 13 12 12 12 12 13 13 13 13 12 11 12 12 11 11 10 10 9 9 8 8 7 7 7 6 6 6 6 6 5 5 4 4 4 4 3 2 3 2 1 2 2 3 4 4 1 2 2 2 3 3 2 3 4 5 5 6 5 4 7 7 4 4 8 8 7 7 9
9 8 8 9 11 11 12 13 12 12 14 14 13 13 14 14 14 13 13 13 13 13 13 13 12 12 11 11 11 11 11 10 10 10 9 10 9 9 8 9 8 8 8 8 8 8 7 7 6 6 6 5 4 4 4 3 2 1 1 1 3 3 1 3 3 2 3 4 4 4 5 4 4 5 5 3 6 9 5 4 8 10 9 9 10
7 7 7 8 9 11 12 13 12 12 13 13 12 11 12 12 12 13 14 14 15 14 14 13 13 12 12 13 12 11 11 10 10 10 9 9 10 10 11 11 10 11 11 11 10 10 9 8 8 7 7 6 7 6 5 5 4 2 2 4 3 2 3 5 4 4 6 6 6 6 7 6 5 6 6 5 6 8 8 8 10 11 11 10 11
7 7 7 7 7 8 10 12 11 11 11 11 11 11 10 11 11 12 12 13 15 15 14 14 14 13 14 14 13 12 11 10 10 10 10 9 10 11 12 12 12 13 13 13 12 12 11 10 9 9 9 10 10 9 9 8 7 5 4 4 5 5 6 6 6 7 8 8 8 8 8 8 8 5 4 5 5 7 8 9 12 13 12 12 12
7 7 7 7 7 7 8 9 9 9 9 10 10 10 10 10 11 12 11 11 11 13 13 14 14 14 14 13 12 11 10 11 11 12 13 11 11 11 12 13 14 14 14 15 14 13 11 10 9 10 11 12 12 11 12 12 10 8 6 4 5 6 6 7 8 8 9 9 9 9 9 10 10 6 4 6 6 6 7 10 13 14 13 12 12
6 6 6 6 6 6 6 6 7 9 9 8 8 9 9 9 9 11 12 12 11 11 11 11 13 13 12 12 14 13 10 10 13 15 16 16 14 13 13 13 14 15 15 14 12 12 11 9 9 10 11 11 11 10 11 13 12 11 10 7 7 7 6 7 7 8 9 10 10 10 10 11 10 7 6 8 7 5 7 10 12 13 12 11 12
6 6 6 6 5 5 5 4 5 7 7 6 6 6 7 8 8 10 14 15 13 11 11 11 13 14 12 14 17 16 12 11 12 14 15 16 17 16 15 12 11 12 13 11 7 7 8 7 7 6 7 7 8 8 9 11 12 13 13 12 13 13 11 9 8 7 7 8 8 9 9 9 7 5 4 4 5 4 7 9 10 11 11 12 13
7 6 6 6 5 4 5 4 4 5 5 5 5 4 5 7 8 9 11 12 11 12 13 12 13 12 11 13 11 8 8 10 11 12 13 13 14 16 15 11 7 8 9 7 6 7 8 7 7 7 5 4 5 6 7 7 8 10 13 15 17 17 17 16 14 12 10 8 7 8 7 5 5 4 1 2 4 6 8 10 10 11 11 12 14
7 7 6 6 5 4 4 4 4 4 4 4 5 5 5 5 6 8 10 11 12 14 13 12 11 10 11 12 7 3 5 9 10 9 10 9 9 11 12 9 7 7 8 9 9 8 6 5 6 7 6 3 4 5 5 5 5 5 7 11 15 17 18 18 16 16 15 12 9 8 4 1 2 2 3 6 7 6 7 9 10 11 13 15 18
9 8 7 7 5 4 4 3 3 2 3 3 4 6 6 7 8 10 10 11 12 12 11 10 10 10 10 11 10 8 9 9 9 9 8 8 8 8 8 7 7 8 8 7 6 5 5 3 3 5 5 4 5 5 4 4 5 4 3 6 8 10 12 14 13 11 9 7 7 4 1 1 3 4 6 7 6 5 7 10 12 14 16 17 18
9 8 7 7 7 6 5 3 2 1 1 1 2 4 5 7 9 9 9 10 9 9 10 10 10 9 8 10 12 13 12 10 10 9 8 8 8 7 6 6 6 7 6 5 5 4 5 4 2 3 4 4 4 4 3 3 5 5 5 4 5 6 8 12 13 11 9 8 7 6 6 7 8 9 9 9 8 9 10 11 13 14 16 17 16
8 7 7 7 6 6 5 4 2 1 1 2 3 3 3 5 6 7 8 9 8 8 10 10 10 9 9 10 10 12 13 13 11 10 9 9 9 8 7 7 6 5 5 5 4 4 5 4 2 3 4 3 3 3 3 2 4 6 6 5 5 5 7 11 12 12 12 11 9 9 9 10 11 11 12 12 12 13 12 11 12 13 14 15 16
8 8 7 7 6 5 5 5 4 3 3 4 3 3 3 4 5 6 6 7 7 7 8 9 9 9 11 11 10 11 12 12 11 11 11 10 11 10 8 7 6 5 5 5 3 3 6 6 4 4 3 3 3 3 2 3 3 5 6 6 7 7 6 8 10 11 11 10 10 11 11 12 12 13 13 13 13 13 12 11 11 13 13 14 15
8 8 8 8 7 6 5 5 5 5 5 5 4 4 5 5 6 6 6 7 7 8 9 9 10 11 11 11 10 10 11 12 12 11 11 12 12 11 9 7 7 5 5 6 4 3 5 7 7 6 4 3 2 2 4 5 3 4 5 6 9 10 8 6 6 6 6 7 8 10 12 12 13 13 13 12 12 11 10 9 10 11 12 13 15
7 7 7 6 6 5 5 5 5 6 7 6 5 5 6 6 6 7 7 8 9 9 10 11 11 11 10 11 12 10 10 12 12 12 12 12 12 11 8 6 7 6 6 7 7 6 5 5 6 7 5 4 5 4 6 7 4 2 2 1 1 4 7 6 6 4 4 5 7 8 10 10 10 10 10 11 12 11 10 8 8 9 12 15 18
7 7 7 6 6 5 5 6 6 7 8 7 6 7 7 7 7 7 8 9 9 9 10 11 11 12 11 12 13 13 12 13 13 13 13 12 11 10 7 5 7 7 6 7 8 7 7 6 7 8 6 6 6 5 7 8 6 4 2 3 5 6 5 2 3 5 5 7 8 9 9 9 9 10 11 12 13 12 10 11 10 11 15 18 19
8 8 8 7 7 6 6 6 7 7 8 8 8 9 9 9 9 9 10 11 11 11 11 12 13 13 13 13 14 14 14 16 16 15 14 13 13 11 7 5 7 7 6 8 8 7 9 8 9 9 8 7 8 7 7 7 5 3 1 2 3 3 4 3 5 7 7 7 8 9 9 10 10 11 12 13 13 11 11 13 13 14 17 19 19
9 9 9 9 9 9 9 8 8 8 8 8 9 10 11 11 11 11 12 13 13 13 14 15 16 15 15 15 15 14 15 18 18 17 15 14 14 13 10 8 9 8 7 8 7 9 11 10 11 11 10 9 8 8 7 6 3 1 2 4 6 7 6 5 6 7 7 7 9 9 10 10 11 11 11 11 11 10 11 13 14 15 18 19 19
9 9 9 10 10 11 11 11 10 10 9 9 10 11 12 13 14 14 14 15 16 16 16 17 18 18 18 18 17 15 15 17 19 19 17 17 16 15 12 11 12 10 7 6 9 12 11 12 12 12 11 10 10 9 7 5 3 2 2 4 4 4 3 4 5 6 6 7 8 9 9 9 9 9 9 9 9 11 12 14 16 17 18 19 19
11 11 11 11 12 12 12 12 12 12 12 11 11 12 13 14 15 16 17 17 18 18 18 17 19 20 19 18 19 18 17 17 20 21 20 19 18 17 14 13 14 12 8 8 13 13 12 12 14 13 12 11 10 8 7 5 3 2 2 2 2 1 2 3 4 5 6 7 8 8 8 8 7 7 8 9 11 12 13 15 17 16 16 17 18
12 12 12 13 13 14 14 14 14 14 14 14 14 14 14 15 16 17 18 19 20 20 19 19 20 20 19 19 19 18 16 16 18 22 23 21 20 19 17 16 16 14 10 12 16 15 12 13 15 14 13 11 10 8 6 3 2 1 2 2 1 1 2 3 4 6 7 7 7 6 6 6 7 8 10 12 13 13 14 15 16 15 15 15 16
13 13 13 14 14 15 15 15 15 15 15 16 16 16 16 17 17 17 18 19 20 21 19 18 19 20 19 20 19 16 15 14 14 19 22 21 21 21 20 19 19 16 14 15 16 16 15 16 16 15 13 12 10 8 4 2 3 2 2 2 2 1 1 3 4 6 6 6 6 6 6 7 8 9 11 12 12 13 13 14 15 15 15 16 16
14 14 14 15 15 15 15 16 16 17 17 17 17 17 18 19 19 20 20 20 21 21 20 19 20 19 18 18 15 11 13 16 16 17 18 19 19 20 20 20 18 16 16 17 18 17 18 17 15 13 12 11 10 7 5 4 5 4 2 1 2 3 3 3 3 3 4 4 5 6 7 7 9 10 11 12 12 13 13 13 14 15 15 16 16
14 15 15 15 15 16 16 17 17 17 17 18 18 18 19 20 20 20 19 16 15 16 14 13 12 12 12 14 14 13 14 17 17 17 19 19 19 19 20 21 19 16 17 20 20 20 19 16 14 12 11 10 9 8 7 6 5 4 2 0 2 3 2 3 3 2 3 5 6 7 7 8 10 11 11 12 12 13 13 14 14 15 15 15 16
16 15 15 15 15 16 16 17 18 18 19 20 20 20 20 21 22 22 20 17 14 12 10 9 9 8 7 7 9 12 16 18 18 19 21 20 18 19 21 22 20 19 20 21 19 18 17 14 13 12 11 10 9 8 7 5 4 4 4 1 1 1 1 3 3 3 5 5 6 7 8 9 11 11 11 12 13 13 14 14 14 15 15 15 16
15 16 16 16 17 17 17 18 19 19 20 21 21 22 22 22 23 24 24 25 24 22 20 19 19 17 14 10 6 6 10 16 20 23 22 20 20 23 23 22 22 23 23 21 18 16 15 13 12 12 10 9 8 7 6 5 4 3 3 2 2 1 1 2 2 4 6 6 6 7 8 10 11 11 12 13 14 14 15 14 14 14 14 15 15
15 15 15 16 17 17 18 19 19 19 20 20 21 21 22 23 23 23 24 25 26 26 25 25 25 24 21 16 10 6 6 9 14 21 23 23 26 28 26 25 25 25 23 19 15 13 13 13 11 11 10 8 7 6 5 4 3 3 2 2 2 1 1 2 2 4 5 6 7 8 9 10 11 12 13 14 14 15 15 15 14 14 14 15 15
15 15 15 16 16 16 17 17 18 19 19 20 20 20 21 22 23 23 21 21 22 22 22 22 23 23 22 19 14 11 10 8 7 12 20 27 30 29 26 25 25 23 21 17 13 12 13 12 10 10 9 8 7 7 5 5 4 3 2 1 1 1 1 3 4 4 4 6 8 9 9 10 11 12 13 13 14 14 14 14 14 14 15 15 15
14 15 15 16 17 16 16 16 17 18 18 19 19 20 20 21 22 21 19 17 17 18 19 20 22 22 21 19 16 14 13 11 7 8 16 23 26 26 25 23 21 21 19 14 11 11 11 10 10 9 8 8 8 7 6 5 4 3 2 1 1 1 2 3 4 4 5 7 8 9 9 11 11 12 13 13 13 14 14 15 15 15 15 15 15
13 14 15 16 17 16 16 17 17 17 18 18 18 19 19 20 20 20 20 18 17 17 17 18 21 24 24 21 18 16 14 13 11 10 12 15 19 22 23 22 20 19 17 12 10 10 9 8 9 9 8 8 8 7 7 6 4 3 3 1 1 1 2 3 4 5 6 7 8 9 10 11 11 12 13 13 14 14 15 15 15 15 15 16 16
12 13 14 14 14 14 15 16 16 17 17 17 18 19 19 18 17 17 18 17 18 19 18 13 13 18 21 20 18 18 16 14 13 12 11 12 15 19 20 18 16 14 11 6 6 9 9 8 8 8 7 8 8 7 7 6 4 3 2 0 1 1 2 3 4 6 6 7 7 9 10 11 12 12 13 14 14 15 15 15 15 15 15 16 17
12 12 13 13 13 13 14 15 16 17 18 19 20 21 20 18 16 15 16 15 15 17 18 13 7 10 13 14 16 18 17 15 14 13 11 13 16 16 15 15 13 11 9 7 8 9 8 8 8 7 8 8 8 7 7 6 4 3 2 1 2 1 3 4 4 5 6 7 8 10 10 11 12 12 13 13 14 14 14 15 15 16 16 16 17
11 12 12 13 13 13 14 14 15 16 17 17 18 19 20 20 17 14 13 14 13 14 17 15 11 9 11 12 15 17 16 15 16 15 14 16 18 16 15 15 15 13 12 11 11 11 10 8 8 8 8 8 8 7 7 5 3 3 2 1 2 2 4 5 5 4 6 7 8 10 10 11 11 12 12 13 13 14 14 14 14 15 15 16 15
11 10 11 13 13 12 12 12 13 14 14 14 15 16 18 19 17 14 12 12 12 12 13 15 16 13 12 15 16 17 17 17 18 19 20 22 21 17 15 16 16 14 13 12 11 10 10 9 8 8 8 8 7 7 6 5 3 2 1 2 2 2 4 5 4 4 6 8 8 9 10 11 11 12 12 12 12 13 13 14 15 16 16 16 16
11 10 10 12 13 13 12 11 11 12 12 11 12 13 13 12 13 12 11 10 10 10 11 14 17 12 11 18 19 17 16 15 15 19 22 23 21 18 16 16 15 14 13 12 11 10 10 10 9 8 8 8 7 6 5 4 2 1 1 1 2 3 3 5 5 5 6 7 8 9 10 11 11 11 11 11 11 12 14 15 16 17 17 17 17
11 11 11 11 12 13 12 11 11 11 11 10 9 9 7 7 8 9 10 10 9 9 12 15 14 5 9 16 18 16 14 12 14 17 19 18 18 17 16 16 16 15 14 12 11 11 11 10 9 9 8 8 7 5 4 3 1 0 0 1 3 3 4 4 4 5 6 7 8 9 10 11 11 12 11 11 12 13 15 15 16 17 17 18 18
11 11 12 11 11 11 12 12 12 12 10 9 8 7 5 3 3 4 6 7 8 10 14 13 5 5 10 13 14 13 12 12 14 16 16 15 16 15 14 14 14 14 14 13 12 12 11 11 10 9 8 7 6 4 4 3 2 2 2 3 3 4 5 5 5 5 7 7 8 9 10 11 12 12 12 12 13 13 14 16 17 17 18 18 18
11 11 12 11 10 10 11 11 12 12 11 10 8 6 4 2 1 0 2 4 7 11 14 9 3 11 11 10 11 11 11 13 15 15 14 13 12 12 13 15 15 15 14 12 11 11 11 10 10 9 7 6 5 4 4 4 4 4 4 4 4 5 5 5 5 6 7 7 8 9 10 11 12 12 12 12 12 13 15 17 18 17 17 17 18
12 12 12 12 12 11 11 11 11 10 11 11 11 9 7 5 5 4 4 4 4 2 2 4 8 11 11 12 12 13 14 15 16 16 17 17 17 16 17 17 15 14 13 11 10 10 9 9 9 9 8 6 5 5 6 6 6 5 5 5 5 5 5 5 6 7 7 8 8 9 10 11 12 12 12 12 13 14 16 17 18 18 18 18 17
11 12 12 13 13 13 12 12 11 11 11 11 12 13 12 11 9 8 8 8 9 10 9 9 9 10 12 12 12 13 15 16 16 17 18 19 20 20 19 17 15 14 12 11 10 9 8 8 9 9 7 6 5 6 6 6 6 5 6 6 6 5 5 6 7 8 8 8 7 8 10 11 12 11 11 12 13 15 17 17 18 18 18 17 17
11 12 12 12 13 13 14 14 13 12 13 13 12 13 15 15 14 13 11 11 10 10 11 11 11 12 13 13 13 15 16 17 17 18 18 19 19 19 17 16 14 13 11 10 10 10 11 11 11 8 6 6 6 6 6 6 4 4 6 5 4 4 5 7 8 9 8 7 7 8 10 11 11 11 11 13 15 17 18 18 17 17 17 17 17
10 10 10 11 12 12 13 14 14 14 14 14 14 14 14 15 15 15 14 13 12 12 12 12 12 13 14 14 15 16 17 18 20 21 21 21 20 18 16 15 13 11 10 10 10 10 11 12 11 8 6 6 6 7 7 5 4 4 5 3 4 5 6 8 9 9 8 8 9 10 10 11 10 10 12 15 17 18 18 17 17 17 17 17 17
9 9 9 10 10 11 12 12 13 14 14 14 14 14 14 14 15 15 14 13 14 14 14 14 14 14 15 15 16 17 20 23 24 23 21 19 17 16 15 13 11 10 10 10 9 8 8 9 8 7 6 5 5 5 5 3 3 3 2 2 5 6 6 7 9 9 9 10 10 11 11 10 10 11 13 16 18 17 17 16 16 16 17 17 16
8 7 8 9 9 10 10 11 11 12 12 12 13 13 14 14 14 14 13 13 13 13 14 14 14 14 14 14 15 17 20 22 21 19 18 16 15 14 13 11 10 10 9 9 8 8 7 7 7 6 5 5 5 4 3 1 1 2 3 5 5 6 5 6 8 10 10 10 10 10 10 10 10 11 14 16 16 16 16 16 16 16 17 16 15
6 6 6 7 8 8 9 9 10 10 11 11 12 12 12 13 13 13 13 13 13 13 13 14 13 13 14 16 17 18 19 19 18 16 15 14 13 12 12 10 9 9 8 8 7 7 6 5 4 4 4 5 6 5 3 2 3 4 6 6 7 6 5 5 7 9 9 9 9 10 10 10 11 13 14 14 14 15 16 16 17 17 16 14 14
5 5 6 6 6 7 8 8 9 9 10 10 10 11 11 12 12 13 13 13 13 13 13 14 14 14 15 17 17 17 17 16 15 13 12 11 10 10 9 9 8 8 8 7 7 7 6 5 4 4 5 5 5 4 2 4 6 6 7 7 7 6 5 5 6 7 9 8 8 9 11 11 12 13 13 13 14 14 15 16 17 16 14 14 14
Wind_Direction
159 164 171 177 180 181 183 187 188 178 168 168 167 166 169 169 169 168 162 160 159 157 155 156 156 154 150 147 143 139 135 129 124 120 116 110 109 110 108 106 102 95 91 88 80 75 76 76 72 62 58 61 58 59 71 64 58 70 72 79 85 66 58 85 105 111 108 114 126 115 103 129 110 85 78 71 39 33 106 112 356 357 330 297 318
170 173 174 179 181 180 182 184 182 178 173 171 173 174 173 172 171 169 165 166 167 165 162 160 161 160 157 155 152 149 146 143 139 134 129 124 119 117 114 112 108 105 104 97 93 87 77 80 75 62 62 53 32 45 56 29 48 73 62 68 82 75 76 96 109 118 123 127 140 130 103 29 45 102 92 66 28 334 275 15 344 358 1 323 306
169 174 173 177 180 179 181 181 180 181 179 176 177 175 172 173 174 175 174 173 174 173 167 165 166 165 164 162 160 158 154 152 151 147 144 142 138 134 130 127 125 125 129 126 120 111 100 96 89 73 74 62 35 49 54 16 30 65 57 55 70 62 55 71 94 112 122 121 197 176 119 44 340 87 132 128 30 335 323 342 329 321 353 349 326
159 160 166 174 180 182 182 179 179 182 182 182 180 174 172 175 180 185 183 179 180 177 171 171 172 169 170 168 166 165 163 161 162 161 159 159 156 154 154 152 152 155 156 152 144 140 141 135 123 115 103 93 68 67 87 56 47 82 93 80 82 68 44 23 14 30 109 125 269 240 96 55 285 352 333 288 249 274 293 339 333 317 315 339 333
158 159 163 169 176 184 186 182 179 181 185 187 184 178 176 178 184 188 186 184 184 179 176 178 177 175 176 176 174 174 172 170 170 169 168 171 172 169 170 172 172 177 177 172 173 170 171 173 158 153 149 139 145 117 105 97 56 99 110 69 96 99 41 346 348 345 288 246 243 312 318 293 298 339 329 331 338 329 332 346 346 342 320 322 330
163 165 165 167 174 183 186 183 179 180 184 186 187 187 186 185 186 187 188 188 185 183 184 183 183 183 184 186 186 183 182 182 180 179 178 179 181 179 180 184 186 190 191 188 190 188 187 191 184 178 177 169 166 147 125 120 83 83 55 38 79 97 52 311 309 300 289 280 249 258 287 291 310 320 312 337 334 314 313 342 339 340 333 323 325
167 167 167 171 179 182 182 181 178 178 182 184 188 192 193 192 191 191 194 194 190 192 193 191 193 193 193 200 201 193 191 192 188 187 187 185 187 191 196 198 200 205 206 205 202 197 197 198 196 196 195 187 180 173 162 162 146 99 70 71 93 90 317 279 280 271 272 281 271 266 278 268 261 284 298 315 296 284 295 349 334 327 326 321 319
161 162 167 176 184 183 179 179 184 185 184 185 188 194 201 202 200 199 202 202 200 200 199 200 203 203 202 207 210 205 200 197 195 195 200 202 199 202 208 209 213 215 215 215 212 205 203 206 204 203 205 201 192 184 177 178 183 195 216 227 239 255 259 259 263 257 258 270 271 266 278 275 240 233 255 269 279 305 341 351 326 314 316 315 314
147 152 161 171 182 186 180 179 188 190 188 189 191 195 201 205 209 212 213 211 208 207 209 210 210 211 213 210 211 209 200 198 203 203 210 218 215 216 220 220 223 225 219 216 214 208 205 205 207 209 206 203 202 202 204 206 205 210 215 226 236 239 243 249 254 259 263 265 264 262 270 276 269 261 284 299 314 342 348 328 310 307 310 310 308
145 154 159 163 168 178 180 180 187 191 189 191 197 200 202 206 212 217 222 219 209 210 221 220 214 217 219 213 213 211 198 200 210 210 212 218 221 229 233 228 229 234 230 221 213 206 202 197 203 213 212 215 222 223 223 226 218 206 207 215 217 224 244 255 256 265 274 272 273 278 279 277 282 294 310 308 318 330 318 305 303 305 307 306 304
130 134 131 134 143 154 163 173 184 188 187 192 204 208 207 211 214 216 222 224 212 209 223 225 218 223 228 227 230 228 217 213 214 215 219 222 225 233 239 237 234 237 244 242 223 205 199 192 195 211 218 226 236 235 231 234 228 215 215 216 211 215 232 252 259 265 274 275 277 287 291 286 290 300 293 291 300 308 303 298 298 301 305 306 306
115 110 110 114 122 135 142 147 161 170 176 187 197 199 201 209 214 211 213 220 218 217 228 233 228 229 236 236 230 223 218 218 223 227 230 232 233 234 241 250 244 238 251 267 258 218 201 185 179 193 206 211 220 228 231 235 234 229 226 220 218 221 225 239 256 267 284 293 289 290 297 298 303 318 326 327 335 323 304 298 297 301 304 303 302
106 103 105 104 107 122 132 135 141 150 168 183 185 191 200 202 207 210 211 218 228 230 232 236 231 230 240 244 236 220 211 220 234 239 234 234 236 231 235 253 263 244 237 232 225 219 202 182 171 175 189 196 200 212 222 228 235 239 237 231 230 231 231 235 243 251 267 291 298 293 299 313 327 340 2 331 325 313 300 297 299 302 301 298 298
91 91 92 94 102 113 119 130 141 149 173 184 187 205 221 220 222 223 222 226 232 233 234 236 231 229 238 248 257 272 243 233 233 227 218 219 222 214 219 233 242 231 212 193 197 204 190 173 166 167 175 186 188 194 202 209 220 238 251 246 240 240 241 242 245 251 258 265 273 284 296 327 349 334 284 284 300 306 296 296 301 301 298 294 292
77 73 73 73 77 82 88 101 116 141 175 183 190 204 218 231 231 223 219 222 223 225 230 232 228 226 231 236 234 228 229 223 206 194 193 196 196 194 204 217 214 206 197 184 181 176 162 156 150 146 146 153 174 187 193 205 213 214 231 240 235 236 237 233 232 238 242 238 239 246 230 234 270 280 277 283 293 293 289 293 297 297 293 289 287
71 65 60 56 51 45 49 62 67 85 181 194 217 215 213 219 219 213 217 222 221 220 222 221 221 217 213 217 216 210 207 197 181 179 182 181 185 191 208 221 208 186 174 168 164 152 137 135 141 131 129 155 192 213 227 233 229 221 212 204 198 202 216 217 214 215 213 208 211 219 235 262 276 277 277 280 281 285 292 295 295 294 290 288 289
56 51 48 46 37 24 19 17 14 347 294 262 244 235 219 214 211 209 216 219 215 213 214 215 214 200 187 191 190 185 185 184 178 180 183 182 190 204 216 217 204 184 171 166 165 164 158 160 157 124 130 183 247 282 276 239 224 228 223 210 196 197 220 230 228 225 226 228 237 250 265 280 288 287 287 289 290 292 295 294 294 297 295 291 292
35 30 25 21 15 10 359 346 343 333 303 285 270 252 241 235 223 209 207 209 206 201 202 208 206 190 186 192 186 177 182 187 185 189 195 197 198 208 219 211 193 188 183 167 154 178 188 190 180 146 154 216 259 285 261 196 203 229 216 203 212 215 215 227 233 233 237 246 260 273 282 290 291 290 290 292 293 294 292 291 297 300 295 291 293
21 17 12 5 359 357 347 331 325 315 303 302 299 276 259 250 232 212 207 213 211 202 195 197 195 192 195 196 187 180 183 186 186 189 195 198 196 202 219 210 184 187 195 175 149 147 182 188 186 186 204 223 215 215 194 176 191 233 220 220 234 227 204 186 195 213 238 262 276 283 289 293 294 296 298 296 296 298 293 289 293 292 289 293 298
6 2 359 352 347 347 340 331 325 313 304 305 302 282 266 253 235 222 222 225 219 208 204 204 200 196 195 187 183 184 183 182 184 182 181 185 188 199 223 212 182 188 202 185 165 148 151 168 182 189 200 195 180 172 174 171 166 179 201 256 190 159 153 162 181 204 245 259 266 272 275 277 278 280 279 277 283 290 291 289 286 283 288 295 296
346 340 335 330 332 336 333 332 331 318 304 299 292 280 270 262 249 236 233 236 231 219 214 217 214 205 196 189 190 191 184 182 185 180 175 174 176 189 218 215 191 194 197 193 191 169 147 156 174 177 176 177 173 166 172 178 170 155 142 56 76 106 118 167 252 277 272 254 257 266 268 268 270 267 264 267 272 274 273 273 272 276 286 293 293
327 319 314 311 312 313 312 314 315 311 304 300 293 280 268 262 255 245 240 242 244 235 224 223 224 217 208 202 199 195 189 189 191 185 179 176 177 185 202 204 197 201 201 209 211 172 149 164 178 174 170 170 167 164 168 174 175 177 204 334 327 301 299 292 280 281 271 260 268 279 281 282 283 281 282 287 288 285 281 282 284 289 292 294 294
311 306 302 300 298 294 292 291 291 291 290 290 288 283 274 265 257 250 245 244 246 241 229 225 226 224 219 214 209 202 195 196 197 192 185 184 185 188 194 194 193 200 214 221 195 152 157 181 182 171 170 168 161 158 157 161 176 232 295 299 297 300 299 281 263 265 272 279 285 286 284 286 288 289 294 298 299 302 303 300 300 299 293 290 289
301 298 293 288 285 282 278 277 275 273 273 275 276 275 271 266 260 254 248 245 245 242 235 229 228 225 221 217 214 207 199 199 201 198 191 189 190 192 195 193 187 188 207 206 165 155 177 195 184 173 173 170 164 165 165 171 192 225 270 289 299 305 288 264 260 266 274 279 281 281 285 291 297 300 303 307 308 308 303 295 293 294 291 289 291
296 293 288 284 281 278 275 272 269 266 266 265 265 265 265 263 259 255 250 248 246 243 240 238 236 231 224 220 217 209 199 199 203 201 195 193 193 193 194 191 185 182 185 175 167 176 196 194 180 177 179 174 172 174 175 179 193 219 274 311 329 296 264 269 279 282 279 281 284 287 293 300 305 308 311 310 306 302 299 297 300 305 302 296 296
287 286 284 283 281 278 274 272 269 266 263 261 259 257 256 256 255 254 252 250 248 247 244 239 240 240 234 229 227 219 208 203 201 199 198 196 194 194 193 189 187 188 183 174 177 187 191 180 177 178 174 168 168 168 169 171 154 76 38 53 120 223 266 296 300 289 284 286 287 288 294 300 305 311 313 308 301 299 301 303 306 308 304 299 297
280 278 277 277 276 274 272 270 269 267 265 263 259 255 253 253 253 251 251 250 249 250 248 241 241 245 241 234 228 222 219 219 206 197 199 198 196 196 194 190 191 191 183 175 178 181 177 173 174 173 163 160 165 171 170 141 125 120 113 132 168 229 290 317 308 290 281 285 292 296 299 301 303 307 309 306 302 302 304 303 301 300 299 299 297
281 278 275 275 274 272 271 270 270 268 267 264 261 258 257 256 253 249 249 251 251 252 252 245 240 241 244 248 251 247 232 219 201 190 193 197 197 196 194 193 190 184 178 176 175 174 172 168 166 164 162 164 171 181 181 161 158 170 179 199 230 231 246 280 288 274 276 294 306 307 306 307 307 308 309 306 305 304 303 303 301 298 298 297 294
284 281 278 276 274 272 271 270 268 266 265 264 263 262 261 260 260 257 253 253 255 256 259 259 251 243 243 248 255 257 240 220 203 190 190 195 199 198 198 198 189 179 185 187 178 169 166 164 164 168 172 176 183 188 182 170 172 177 164 259 273 237 246 281 279 290 317 319 311 304 306 309 308 308 306 304 303 305 306 305 302 299 297 294 291
283 280 276 274 273 273 273 272 271 270 268 265 262 262 261 261 263 265 265 268 272 271 273 283 288 290 287 265 242 237 239 235 221 201 188 190 200 207 207 202 191 185 191 189 174 164 165 169 175 181 181 183 191 191 181 175 185 185 169 183 258 225 319 305 294 321 326 310 297 300 307 309 306 303 304 304 304 304 304 303 299 297 295 292 289
292 287 282 279 279 279 277 277 276 274 272 272 269 267 265 261 257 258 261 267 273 275 276 278 280 284 290 292 275 248 252 248 231 211 195 191 204 210 207 199 193 193 193 182 168 166 174 178 182 184 184 186 185 177 171 175 186 190 183 184 189 193 285 294 311 328 315 299 299 308 310 307 303 300 300 302 302 301 300 299 297 295 292 291 292
294 293 292 292 293 293 293 294 289 279 274 275 274 271 270 267 262 257 252 253 259 266 269 270 270 270 269 269 265 252 255 253 231 215 206 200 202 205 201 194 194 195 189 176 170 177 183 185 184 181 180 179 171 162 165 172 177 190 208 206 198 216 282 308 322 317 306 305 312 313 309 306 303 300 299 299 299 299 299 298 297 296 295 294 293
290 289 289 292 296 296 295 296 293 286 279 276 272 270 269 269 268 264 253 241 241 250 257 259 259 258 255 254 250 235 227 230 221 208 203 198 197 197 195 192 192 189 180 175 181 188 186 185 180 173 171 169 161 160 166 169 166 173 191 213 245 262 304 322 315 302 300 310 313 311 311 308 303 301 301 300 299 300 300 299 299 298 297 297 296
290 288 288 290 293 293 289 286 285 286 285 281 276 274 272 270 273 276 271 254 240 239 244 249 251 248 242 238 234 224 219 221 217 200 195 193 192 191 186 182 183 180 176 180 192 191 184 179 169 163 163 162 159 160 163 162 160 168 179 206 273 310 336 331 320 315 315 315 314 315 316 312 307 304 302 301 302 302 302 301 300 299 298 299 299
294 291 289 287 286 285 284 283 282 282 282 280 277 276 275 275 277 280 281 277 267 255 247 245 244 241 234 227 223 220 219 219 214 202 189 186 187 183 173 166 168 173 179 192 201 192 182 171 162 161 163 160 158 159 159 155 159 170 176 193 274 322 334 329 330 335 326 313 314 320 317 312 309 306 302 302 303 303 302 302 302 301 300 299 299
302 299 297 296 295 294 291 288 285 282 280 279 280 282 283 284 283 279 276 276 276 270 263 255 239 229 226 222 216 212 212 211 207 200 187 180 184 181 168 157 160 174 187 199 190 180 182 182 177 177 174 163 158 157 156 155 163 168 159 186 291 308 336 336 341 346 332 312 315 325 321 314 312 309 305 306 305 304 305 307 306 304 302 298 295
309 308 309 311 311 307 300 293 289 286 284 283 282 280 278 277 279 277 270 270 280 282 275 263 221 195 203 209 206 203 203 201 198 196 190 184 186 184 172 159 160 170 176 162 146 155 173 187 188 182 168 160 159 158 154 154 161 159 148 275 269 280 320 313 310 330 328 314 318 329 328 321 317 314 310 310 310 309 309 309 307 305 304 301 298
317 316 317 320 317 308 300 295 292 289 287 284 281 277 271 265 263 264 262 261 272 290 291 277 249 206 185 186 194 195 190 180 175 176 178 178 175 172 167 164 164 168 173 170 165 165 173 182 183 175 163 157 155 151 148 152 158 154 156 269 266 271 302 299 291 306 321 318 322 330 331 328 325 322 319 316 315 313 313 313 313 312 310 308 305
327 325 328 332 330 320 310 304 301 299 296 290 286 282 272 259 248 247 252 246 245 267 286 281 265 238 189 171 179 182 175 167 165 166 167 169 170 170 170 171 170 167 165 167 170 170 172 177 178 169 157 149 146 142 142 145 147 152 196 278 286 292 313 317 317 324 330 329 328 332 334 332 330 327 324 321 320 320 319 317 314 310 308 307 306
340 338 339 342 342 338 330 323 319 317 314 309 302 295 280 255 235 233 236 231 234 251 266 271 271 254 187 173 181 181 170 165 165 163 162 167 171 173 171 170 169 163 158 159 166 169 170 174 171 157 144 139 136 131 132 137 147 185 228 295 318 323 326 326 328 334 335 332 330 331 333 334 334 332 329 327 326 323 319 313 309 308 308 309 308
350 347 345 348 351 351 348 345 341 335 330 325 322 317 298 261 235 227 225 225 231 242 252 261 271 257 165 172 182 176 165 161 160 159 160 164 167 169 169 170 170 166 159 157 164 167 167 165 157 144 136 134 131 127 127 132 142 264 26 5 348 344 339 331 332 339 335 328 329 333 334 335 338 337 334 329 325 320 316 314 312 312 312 312 312
2 359 356 355 357 357 357 358 355 352 351 348 342 342 338 298 239 216 219 230 236 245 257 267 282 104 136 166 175 170 165 158 150 151 158 162 165 168 163 153 150 152 152 155 160 162 159 152 145 139 135 130 126 127 130 125 102 58 45 30 13 4 351 337 338 343 335 327 329 334 335 337 340 339 333 328 326 323 320 317 314 314 316 317 317
15 13 9 9 11 10 9 9 5 3 8 10 6 3 4 1 6 208 247 263 263 257 256 258 99 100 118 140 143 140 140 136 131 131 135 136 139 142 132 122 124 135 144 150 152 150 148 147 141 130 121 113 103 96 98 95 77 58 51 42 28 17 1 344 342 341 333 328 330 331 333 337 339 336 333 331 328 324 319 315 314 317 320 321 320
24 24 20 19 22 23 20 18 17 16 19 23 23 24 30 44 54 54 45 30 19 360 195 134 103 100 108 114 111 109 112 116 115 111 108 106 105 107 108 111 119 128 131 133 134 137 144 145 131 114 108 110 104 92 89 88 79 65 60 53 39 23 2 346 340 332 323 325 332 331 330 335 339 338 335 332 327 320 316 317 321 323 323 323 323
28 30 28 27 28 28 28 27 27 31 34 35 36 38 43 52 57 56 58 59 60 68 86 98 103 110 117 120 117 115 117 118 115 111 107 106 109 110 109 106 106 106 107 111 119 124 128 126 120 118 120 121 113 100 94 95 92 81 67 57 43 20 348 332 331 327 322 328 337 333 327 331 337 338 333 327 321 316 315 319 325 328 327 328 329
31 30 31 32 31 33 36 36 36 41 44 46 50 55 58 61 63 63 67 72 72 75 87 96 101 105 110 110 109 113 118 119 115 111 107 105 106 108 108 105 102 101 105 115 121 122 120 120 123 128 124 113 113 111 98 86 80 71 60 44 12 343 332 332 334 332 332 337 340 331 324 324 327 330 329 324 318 317 319 324 331 335 335 332 329
32 30 31 32 32 35 40 41 43 48 51 51 55 61 64 67 68 68 71 79 81 79 82 87 87 89 93 94 95 100 105 105 103 103 104 105 105 105 105 104 102 101 108 117 118 112 112 116 123 129 122 113 118 119 107 95 82 72 63 22 323 323 337 338 337 339 340 339 336 335 335 330 323 323 325 322 317 319 326 334 339 341 336 330 325
32 33 33 31 32 36 39 40 44 48 50 52 56 59 61 63 65 64 66 73 79 79 80 83 84 86 91 93 93 96 100 99 96 95 97 99 102 104 105 104 102 101 104 111 114 110 105 105 110 114 110 108 111 112 107 105 96 83 73 311 313 329 336 334 338 342 340 337 337 342 343 333 316 312 319 321 322 327 335 340 341 337 331 327 327
32 38 36 33 35 39 40 41 44 46 48 52 57 59 58 57 58 58 58 62 69 72 76 79 80 81 83 86 90 96 101 100 95 92 93 96 102 107 107 105 108 109 106 107 114 121 121 116 116 116 114 109 103 93 81 72 33 351 305 300 320 332 328 332 341 340 336 337 340 341 340 335 322 318 322 325 329 336 340 340 337 332 328 329 335
26 38 38 36 40 43 44 47 49 47 49 51 54 57 59 59 59 60 60 61 65 68 71 75 78 81 86 91 94 98 100 99 95 92 92 95 101 108 109 107 110 112 110 108 112 117 116 113 116 121 117 105 91 74 43 331 324 331 323 320 327 330 324 331 340 337 337 340 338 337 346 350 339 328 327 329 334 338 340 338 335 332 332 337 344
19 31 36 42 49 46 47 53 54 53 55 56 55 55 58 58 59 63 67 69 73 76 78 80 83 86 90 93 94 94 95 95 93 92 93 95 100 107 111 109 107 107 107 108 112 115 111 104 94 84 80 80 82 84 42 327 332 341 335 324 325 328 326 326 334 341 341 338 334 344 356 352 334 325 329 334 335 336 338 340 339 337 339 345 349
Height
798 800 801 803 806 807 810 813 815 815 816 817 818 819 820 822 823 824 824 825 825 826 827 828 829 830 830 831 832 832 833 833 834 834 835 835 835 836 836 836 837 837 838 838 839 839 839 839 840 840 840 840 840 840 840 841 840 840 840 840 841 841 841 842 845 848 850 851 851 852 853 853 853 854 854 855 854 854 854 854 853 852 852 851 851
799 801 801 803 805 807 810 812 814 814 815 816 817 819 820 821 823 824 824 825 825 826 827 828 829 830 830 831 832 833 833 834 835 835 835 836 836 837 837 837 838 838 839 839 839 840 840 840 841 841 841 841 841 841 841 841 840 841 841 841 842 843 843 843 845 848 850 851 852 852 853 853 853 853 854 855 855 854 854 854 854 853 854 853 851
799 800 801 803 804 806 809 810 812 813 815 816 817 818 820 821 823 824 824 825 826 826 827 828 829 829 830 831 832 832 833 834 835 835 836 836 837 837 838 838 838 839 839 840 840 840 841 841 842 842 842 842 842 842 843 843 842 843 844 844 844 844 844 845 845 847 849 851 852 852 853 854 853 853 854 854 855 854 854 854 854 853 854 854 852
798 799 800 802 803 805 807 808 810 812 814 816 817 818 820 821 823 824 825 825 825 826 826 827 828 829 830 830 831 832 833 834 835 835 836 836 837 837 838 838 839 839 839 840 840 840 841 841 842 842 842 843 843 843 844 844 844 844 845 845 846 847 847 846 846 847 848 849 851 851 852 853 853 853 853 853 853 853 853 853 853 853 853 854 853
797 798 799 801 803 804 806 807 809 811 813 815 816 818 819 821 822 823 824 825 825 826 826 827 828 828 829 829 830 831 832 833 834 835 836 836 837 837 837 838 838 839 839 839 840 840 841 841 841 842 843 843 844 844 844 845 845 845 846 845 846 848 848 848 847 848 848 849 850 852 852 852 852 853 853 853 853 853 852 853 853 853 853 853 853
796 797 799 801 802 804 805 806 808 810 812 814 815 817 818 820 821 822 823 824 825 826 826 827 827 827 828 829 829 830 831 832 833 834 835 836 836 837 837 837 838 838 838 839 839 839 840 841 841 842 842 843 844 844 845 846 846 846 846 846 846 848 849 849 848 849 849 849 849 851 852 851 852 852 852 853 854 853 852 853 853 853 853 852 852
796 797 799 800 801 803 804 806 808 810 811 812 814 816 817 819 820 821 822 823 824 825 826 826 826 827 827 828 828 829 830 830 831 833 833 834 835 836 836 836 837 837 837 837 837 838 838 839 840 841 842 842 843 844 845 846 846 847 847 847 847 848 850 849 849 849 849 849 849 850 851 851 852 852 852 852 853 852 850 852 853 853 853 852 852
796 797 799 800 800 801 803 805 807 808 810 811 813 814 816 818 819 820 821 822 823 824 825 825 825 826 826 827 827 827 828 829 830 831 832 833 834 835 835 835 835 835 836 835 836 836 837 837 838 839 841 842 842 843 844 845 846 847 848 848 848 849 850 850 850 850 849 849 849 850 850 850 850 851 851 851 851 851 851 852 853 853 852 851 851
797 798 799 800 801 801 803 804 806 807 809 810 812 814 815 817 818 819 820 821 822 823 823 824 824 824 824 825 826 826 827 828 829 830 831 832 832 833 833 833 833 833 833 833 834 834 834 835 836 838 839 840 841 842 843 844 845 846 847 848 849 849 850 850 849 849 849 848 848 849 849 849 849 850 850 850 851 851 852 854 854 853 852 850 850
797 798 799 800 801 802 803 804 805 807 808 810 812 813 814 815 816 818 819 820 821 821 822 823 823 823 823 824 825 825 825 826 827 828 829 830 831 832 832 832 832 832 832 832 832 832 833 834 835 836 837 838 840 841 841 843 844 845 846 847 848 849 849 849 849 849 849 848 848 848 848 848 848 849 850 850 851 852 852 854 854 853 852 850 848
797 798 799 800 801 802 803 804 805 807 808 810 812 813 814 815 815 816 818 820 820 820 822 822 822 822 822 823 825 825 826 827 826 827 828 829 830 830 831 831 831 832 833 833 832 832 832 833 833 834 836 837 839 840 840 841 843 844 846 846 847 848 848 849 849 849 849 848 848 848 848 847 847 848 849 850 850 851 852 853 853 852 851 849 848
798 799 799 800 801 802 803 804 805 806 808 810 811 812 813 814 814 815 817 820 820 820 821 822 821 821 821 823 824 825 826 827 826 827 828 828 829 829 830 831 831 832 833 834 834 833 833 833 833 834 835 836 838 839 839 840 842 843 845 845 846 847 848 848 849 849 849 849 849 849 848 848 848 849 849 850 850 851 852 852 852 851 850 849 848
798 799 799 801 801 802 803 804 805 806 807 808 810 811 812 813 814 815 816 817 819 820 821 822 821 821 821 823 823 824 825 825 825 826 826 827 827 828 829 830 831 832 832 833 835 835 834 834 833 834 835 836 837 838 839 840 841 842 843 844 845 846 847 848 848 848 849 849 849 849 849 849 849 850 850 850 851 852 852 852 851 850 849 848 847
798 799 800 801 801 802 803 804 804 805 806 807 808 809 811 811 812 814 814 816 818 820 821 821 821 821 822 822 823 824 825 824 824 825 825 826 827 827 829 830 830 831 831 832 833 834 834 833 833 834 835 836 837 838 839 840 840 841 842 843 844 845 845 847 847 848 849 849 850 850 850 849 850 850 850 851 851 852 852 851 850 849 848 847 846
799 800 801 801 802 802 803 804 805 805 806 807 808 809 810 811 812 814 815 816 818 818 818 819 819 820 820 820 821 823 825 824 823 824 824 825 826 827 828 829 829 829 830 831 832 832 833 833 833 834 835 835 836 837 838 839 840 841 841 842 844 844 845 845 846 847 848 848 849 850 849 849 850 850 850 851 851 851 851 850 849 848 846 845 843
801 802 803 803 803 804 804 805 805 806 806 807 807 808 809 810 812 813 813 815 816 816 816 817 817 818 819 819 820 822 824 823 823 823 824 825 826 827 828 828 828 828 830 831 832 832 832 833 833 834 834 835 836 837 838 838 839 840 841 842 843 844 844 844 845 846 847 847 848 848 848 848 849 849 849 850 850 850 849 848 848 846 845 842 840
804 804 804 805 805 805 806 806 806 806 807 807 807 808 809 810 810 811 812 813 814 814 815 816 816 816 818 819 820 821 822 822 822 823 823 824 825 826 827 827 827 827 829 830 831 831 832 833 833 834 834 835 836 836 837 837 838 840 840 841 842 843 844 844 845 846 846 846 847 847 847 848 848 848 848 848 848 848 848 847 846 845 843 841 839
806 807 807 807 807 807 807 807 807 808 807 807 807 807 808 809 809 810 811 812 812 813 814 815 816 816 817 818 820 821 821 822 822 822 823 823 824 825 825 825 825 827 828 830 831 831 831 833 833 834 834 834 835 836 836 837 838 839 839 840 842 843 843 843 844 845 845 846 846 846 846 846 847 846 847 847 847 847 847 846 846 845 843 841 839
810 810 810 809 809 809 809 809 809 809 808 808 808 808 808 809 809 809 810 811 812 813 813 814 815 815 816 818 819 821 821 821 821 822 822 823 823 824 823 823 825 826 828 829 830 831 832 832 833 833 834 835 835 836 836 837 838 838 839 839 840 841 842 843 843 844 845 845 845 845 845 845 845 844 844 844 844 845 845 845 845 844 843 841 839
813 812 812 812 811 811 811 811 811 811 810 809 809 809 809 808 808 809 810 810 810 811 812 813 814 815 815 817 818 820 820 820 821 821 822 822 823 823 822 823 824 826 827 828 830 831 832 833 833 833 834 835 836 836 837 837 838 838 838 839 839 839 841 843 843 843 844 845 845 845 844 844 843 843 842 841 841 841 841 842 842 843 842 840 839
814 814 814 813 813 813 813 813 813 812 812 811 811 810 809 808 808 809 809 809 809 810 811 811 813 814 815 816 817 818 819 820 820 821 822 822 822 822 822 822 823 825 826 827 828 830 832 833 833 834 834 835 836 836 837 837 838 838 838 839 839 840 841 842 842 842 843 844 843 843 843 842 842 841 841 840 839 838 839 839 839 840 839 838 837
815 814 814 813 813 813 814 814 814 813 813 812 812 811 810 809 809 808 809 808 808 809 810 810 811 813 814 815 816 817 818 818 819 820 821 821 822 822 822 822 823 824 825 825 827 829 831 832 833 833 834 835 836 836 837 837 838 839 839 840 840 841 841 842 842 842 842 842 842 841 841 841 840 839 839 839 838 838 838 837 837 837 837 836 836
815 814 814 814 814 813 813 813 813 813 813 812 812 811 810 810 809 808 808 808 808 808 808 809 810 811 812 814 815 815 816 817 818 819 820 821 821 821 821 822 823 823 824 825 826 828 830 831 832 833 834 835 836 836 837 837 838 839 840 840 840 841 841 841 842 841 841 841 841 840 840 839 839 838 838 837 838 838 838 837 837 837 836 835 834
815 814 814 814 813 813 813 812 812 812 811 811 811 811 810 809 808 808 807 807 807 806 806 807 808 808 809 811 812 813 815 816 816 817 818 819 820 821 821 821 822 822 823 824 826 828 829 830 832 832 833 834 835 836 837 838 838 839 840 840 840 840 840 840 840 840 840 840 840 839 839 838 838 838 838 838 838 837 837 837 836 835 834 833 832
814 814 814 813 813 812 812 811 811 810 810 810 809 809 809 808 807 806 806 805 805 804 805 806 807 806 806 807 808 810 812 813 814 815 816 818 819 820 821 821 822 822 822 823 825 827 828 830 831 832 833 834 835 836 837 838 838 839 839 839 839 840 840 840 839 839 839 839 839 838 838 838 838 838 838 837 837 836 836 835 834 833 832 832 831
814 814 813 813 812 812 811 810 810 809 809 808 807 807 807 806 805 804 803 803 803 803 803 804 805 805 805 805 805 806 808 810 812 812 814 816 817 818 819 820 821 822 822 823 824 826 828 829 830 831 832 833 835 836 836 837 838 838 838 838 839 839 839 839 839 839 839 838 838 838 838 838 838 838 837 837 836 835 835 835 834 833 832 831 830
814 814 813 812 812 811 810 809 808 808 807 806 805 805 804 803 803 802 801 801 800 801 801 802 802 803 803 803 803 803 805 808 810 812 813 814 815 816 818 819 820 821 822 823 824 826 827 828 829 831 832 833 835 835 836 836 837 837 837 838 838 839 839 840 840 839 839 838 838 837 838 838 837 837 837 836 836 835 835 834 834 833 832 831 830
814 813 812 811 810 809 809 808 807 807 806 805 804 803 802 801 800 799 799 799 798 798 799 800 800 800 801 802 802 803 805 807 808 810 811 813 814 815 817 818 820 821 821 822 823 825 826 828 829 831 832 833 834 835 835 836 836 837 837 837 838 838 839 839 839 838 838 838 838 837 837 837 837 836 836 836 835 835 834 834 833 832 831 830 829
813 812 811 810 809 808 807 806 806 805 804 803 802 801 800 799 798 797 797 797 797 796 797 798 798 798 800 802 803 805 808 808 807 806 807 810 813 815 815 817 819 820 820 820 822 824 826 827 829 830 831 832 833 833 834 835 835 836 837 837 837 837 838 838 838 838 838 838 838 837 837 837 836 836 836 836 835 834 834 833 832 831 830 829 828
811 810 809 808 807 807 806 804 803 802 801 800 799 798 798 797 797 796 796 795 795 795 795 796 797 797 799 801 801 802 806 807 805 804 804 806 811 814 815 816 818 818 819 819 821 823 825 827 828 829 829 830 831 831 832 833 835 835 836 836 837 837 837 838 837 837 838 838 837 837 836 836 836 836 836 835 835 834 833 833 832 831 829 828 826
811 809 807 806 805 805 804 803 802 801 799 798 797 795 794 794 794 794 795 795 795 795 795 796 796 796 798 800 799 799 800 801 802 802 802 803 808 813 815 815 816 816 816 819 821 823 824 825 826 826 827 828 828 830 831 833 834 834 835 836 836 837 837 837 837 837 837 837 836 836 836 836 836 836 835 835 834 833 832 831 830 829 828 827 825
811 810 808 807 806 805 804 802 800 799 798 798 797 795 794 793 791 791 792 793 793 794 794 795 796 796 797 798 798 798 799 800 799 799 799 800 804 809 812 813 813 814 815 818 820 821 822 823 823 824 825 826 828 829 831 832 833 834 834 835 835 836 836 837 837 837 837 836 836 835 835 835 835 835 834 834 833 832 831 830 829 828 827 825 824
811 810 809 808 807 806 805 803 801 800 798 797 797 796 795 793 791 789 789 790 791 792 793 793 794 795 796 796 797 798 800 800 799 798 798 799 802 806 809 810 811 813 815 817 818 819 820 820 821 823 824 825 827 829 830 831 833 834 834 835 835 835 836 836 836 836 836 836 835 834 834 834 834 833 833 833 832 831 829 828 827 827 825 824 823
810 809 808 808 807 806 805 804 803 802 800 798 797 796 795 794 792 790 789 789 789 789 790 791 791 792 793 794 795 796 797 799 799 800 801 801 802 804 806 809 811 812 815 816 817 817 818 819 820 822 824 825 827 829 830 831 832 833 834 835 835 835 835 835 835 835 835 835 834 834 833 834 833 833 832 831 830 829 828 827 826 825 824 823 822
809 808 807 807 806 805 804 803 802 802 801 799 798 797 796 794 793 792 790 789 787 787 787 787 788 788 789 791 792 793 795 796 797 799 801 803 803 804 805 807 810 812 814 815 815 816 818 820 820 822 824 825 827 828 829 830 832 833 833 834 834 835 835 835 835 835 835 834 833 833 833 833 832 832 831 830 829 828 827 826 825 824 823 822 821
808 807 806 805 804 804 803 802 801 800 800 799 797 797 795 795 794 793 791 790 789 787 786 786 786 786 787 789 790 791 792 794 796 798 800 802 804 805 805 806 810 813 814 814 814 815 818 820 821 822 824 826 827 828 829 830 831 832 833 834 834 834 835 835 835 835 835 834 832 832 831 831 831 830 829 828 827 826 825 824 824 823 822 821 820
807 806 805 804 804 803 802 801 800 799 798 797 796 795 794 794 793 793 792 791 790 789 787 786 785 786 787 788 789 789 790 792 795 797 799 801 803 805 806 808 811 813 814 814 815 817 819 820 821 823 824 826 826 827 828 829 831 832 833 833 834 834 834 834 834 834 834 833 832 831 830 830 829 829 828 827 826 825 824 823 822 821 820 819 818
806 805 805 804 803 802 800 799 798 797 796 795 794 793 792 791 791 792 792 791 791 790 788 786 784 785 786 787 788 789 790 791 793 795 798 800 802 805 807 809 811 813 814 814 815 816 818 820 822 823 824 825 826 827 828 829 830 831 832 833 833 833 833 833 833 833 832 832 831 830 829 829 828 827 826 825 825 824 823 822 821 820 819 817 816
806 805 804 803 802 801 799 798 797 795 794 793 792 790 789 789 789 790 791 791 791 791 790 787 784 784 784 785 786 788 789 790 791 793 796 799 801 804 806 808 810 812 813 813 814 816 818 820 822 824 824 825 825 827 828 829 830 831 832 833 832 832 833 832 832 832 832 832 831 830 829 828 828 827 825 825 824 823 822 821 820 819 817 816 815
805 804 803 802 801 800 799 797 796 794 793 791 790 788 787 787 787 788 789 790 790 790 790 788 785 782 782 783 784 787 789 790 791 792 794 797 800 803 805 807 808 810 812 813 814 816 818 821 822 824 824 825 826 827 828 829 830 831 832 832 832 832 832 832 832 832 832 832 831 830 829 828 827 826 825 824 823 822 821 820 819 818 816 815 813
805 804 803 802 801 800 799 797 796 794 793 791 789 788 787 786 786 787 788 789 790 790 789 788 786 784 783 782 784 786 788 790 791 793 795 797 799 802 804 806 807 809 811 813 814 816 819 821 823 824 824 825 826 827 828 830 830 831 831 832 832 832 832 832 832 832 832 832 831 830 829 828 827 825 824 823 822 821 820 819 818 816 815 813 812
805 805 804 803 802 801 800 798 797 795 793 791 789 788 787 787 787 787 788 789 789 789 789 788 787 785 784 784 786 787 788 790 792 794 796 798 800 802 804 805 807 808 811 814 816 818 820 821 822 823 824 825 826 828 829 830 830 831 831 832 832 832 833 833 832 832 832 831 831 829 828 827 826 825 824 823 822 821 819 818 817 815 814 812 810
806 805 804 803 803 802 800 799 798 796 794 793 791 789 789 788 788 788 788 788 788 788 788 788 788 786 786 787 787 788 789 791 793 795 796 798 800 802 804 806 808 811 813 816 818 819 820 821 822 823 824 825 827 828 829 830 831 831 832 832 832 833 833 833 832 832 831 831 829 828 827 826 825 824 823 822 821 820 819 817 815 814 812 811 809
806 805 805 804 803 802 801 800 799 797 796 794 793 791 790 790 789 789 789 789 789 788 788 788 788 788 788 789 790 790 792 794 795 797 798 799 801 803 806 809 811 813 815 817 819 820 821 821 822 823 825 827 829 829 830 830 831 832 832 832 832 833 833 832 832 831 830 829 828 828 827 826 825 824 823 822 821 819 818 816 815 813 811 810 808
806 806 806 805 804 803 803 801 800 799 798 796 795 794 793 792 791 791 791 791 791 790 790 790 790 790 791 792 793 794 795 796 798 800 801 802 804 806 809 812 813 815 816 818 819 820 821 822 823 825 827 829 830 830 830 830 831 832 832 832 832 833 832 832 831 830 829 828 827 827 826 825 824 823 822 821 820 818 817 815 814 812 811 809 807
807 807 807 806 805 805 804 803 802 801 800 799 798 797 796 795 794 794 794 794 793 793 793 793 793 794 794 795 796 797 798 800 801 802 803 805 807 810 812 814 815 816 818 819 819 820 821 823 825 827 828 829 829 830 831 831 831 832 832 832 832 832 831 830 829 829 828 827 826 826 825 824 824 823 822 821 819 817 816 814 813 812 810 809 807
808 808 808 807 807 806 805 805 804 803 802 802 801 800 799 799 798 797 797 797 796 796 796 797 797 798 799 800 800 801 802 803 803 803 805 807 809 812 814 816 817 818 819 821 822 823 823 824 826 827 829 829 829 830 831 831 832 832 832 832 831 831 830 829 829 828 827 826 825 825 824 823 823 822 821 820 818 817 815 814 813 811 810 808 806
809 809 809 808 808 807 807 806 805 805 804 804 803 802 802 801 801 801 800 800 800 800 800 801 801 802 802 803 804 804 804 804 805 806 808 810 812 814 816 818 819 820 822 823 824 825 825 826 827 828 829 829 830 830 831 831 831 831 831 831 831 830 829 829 828 827 826 825 825 824 823 822 822 822 821 819 817 816 815 814 812 811 809 808 806
810 810 810 810 809 809 808 808 807 807 806 806 805 805 804 804 803 803 803 802 802 803 803 803 804 804 805 806 806 806 806 807 808 811 813 814 816 817 819 820 821 823 824 824 825 825 826 827 828 829 829 830 830 830 831 831 830 831 831 830 830 829 829 828 827 826 825 825 824 823 823 822 822 821 820 819 817 816 815 814 812 810 809 807 805
810 810 810 810 810 810 809 809 809 808 808 808 807 807 807 806 806 806 805 805 805 805 805 806 806 807 807 808 809 809 810 811 813 815 816 818 819 820 821 822 823 824 825 825 826 827 828 828 829 829 830 830 830 831 831 830 830 830 830 829 829 829 828 828 827 826 825 824 824 823 823 822 821 821 820 819 817 816 815 813 811 810 808 806 805
812 811 811 811 811 811 810 810 810 810 810 810 809 809 809 809 808 808 808 808 808 809 809 809 810 810 811 811 812 812 813 814 816 817 819 820 821 822 823 824 825 825 826 827 827 828 829 830 830 830 830 831 831 831 830 830 830 830 829 829 828 828 827 827 827 826 825 824 823 823 822 821 821 821 820 819 817 816 814 813 811 809 808 806 805